Track COSMOS 2435 (GLONASS) now! COSMOS 2435 (GLONASS) is classified as:
1 32394U 07065B 24275.25517273 -.00000020 00000-0 00000-0 0 9994 2 32394 64.3228 212.9774 0024695 355.7967 4.1674 2.13115158130449